Location: Newark
(39.5667°N, 8.9833°E)
Time: 21:40:06
(UTC+00:00)

Tiros 1 - All Passes

Search period start: 15 October 2019 00:00
Search period end: 25 October 2019 00:00
Orbit: 630 x 664 km, 48.4° (Epoch: 14 October)

Date Brightness Start Highest point End Pass type
(mag) Time Alt. Az. Time Alt. Az. Time Alt. Az.
15 Oct - 01:15:03 10° S 01:18:11 18° SE 01:21:20 10° E visible
15 Oct - 02:55:04 10° SW 02:59:52 87° SSE 03:04:43 10° ENE visible
15 Oct - 04:38:06 10° W 04:42:29 34° NNW 04:46:54 10° NE visible
15 Oct - 06:21:26 10° NW 06:25:39 29° N 06:29:52 10° ENE daylight
15 Oct - 08:03:47 10° NW 08:08:33 60° NNE 08:13:17 10° ESE daylight
15 Oct - 09:46:21 10° WNW 09:50:34 31° SW 09:54:46 10° SSE daylight
16 Oct - 01:39:28 10° SSW 01:43:54 39° SE 01:48:22 10° ENE visible
16 Oct - 03:21:22 10° WSW 03:26:03 52° NNW 03:30:47 10° NE visible
16 Oct - 05:04:50 10° WNW 05:09:01 28° N 05:13:12 10° NE visible
16 Oct - 06:47:40 10° NW 06:52:09 37° NNE 06:56:36 10° E daylight
16 Oct - 08:29:52 10° WNW 08:34:41 74° SW 08:39:25 10° SE daylight
16 Oct - 10:13:49 10° W 10:16:14 14° SW 10:18:39 10° SSW daylight
17 Oct - 00:25:20 10° SSE 00:28:13 16° SE 00:31:05 10° E night (unlit)
17 Oct - 02:05:03 10° SW 02:09:51 82° SE 02:14:40 10° ENE visible
17 Oct - 03:48:00 10° W 03:52:25 35° NNW 03:56:51 10° NE visible
17 Oct - 05:31:22 10° NW 05:35:35 29° N 05:39:47 10° ENE daylight
17 Oct - 07:13:45 10° NW 07:18:30 57° NNE 07:23:13 10° ESE daylight
17 Oct - 08:56:14 10° WNW 09:00:34 34° SW 09:04:52 10° SSE daylight
18 Oct - 00:49:33 10° SSW 00:53:54 36° SE 00:58:17 10° ENE night (unlit)
18 Oct - 02:31:17 10° WSW 02:36:00 55° NNW 02:40:45 10° NE visible
18 Oct - 04:14:44 10° WNW 04:18:56 29° N 04:23:08 10° NE visible
18 Oct - 05:57:38 10° NW 06:02:05 36° NNE 06:06:30 10° E daylight
18 Oct - 07:39:49 10° WNW 07:44:39 79° SSW 07:49:25 10° SE daylight
18 Oct - 09:23:30 10° W 09:26:16 15° SW 09:29:00 10° SSW daylight
18 Oct - 23:35:40 10° SSE 23:38:13 14° SE 23:40:48 10° E night (unlit)
19 Oct - 01:15:03 10° SW 01:19:49 76° SE 01:24:37 10° ENE visible
19 Oct - 02:57:54 10° W 03:02:21 36° NNW 03:06:49 10° NE visible
19 Oct - 04:41:18 10° NW 04:45:30 29° N 04:49:41 10° ENE visible
19 Oct - 06:23:43 10° NW 06:28:27 54° NNE 06:33:09 10° ESE daylight
19 Oct - 08:06:09 10° WNW 08:10:34 37° SW 08:14:58 10° SSE daylight
19 Oct - 23:59:40 10° SSW 00:03:54 33° SE 00:08:10 10° ENE night (unlit)
20 Oct - 01:41:14 10° WSW 01:45:57 58° NNW 01:50:42 10° NE visible
20 Oct - 03:24:39 10° WNW 03:28:51 29° N 03:33:04 10° NE visible
20 Oct - 05:07:35 10° NW 05:12:00 35° NNE 05:16:24 10° E visible
20 Oct - 06:49:46 10° WNW 06:54:37 85° SSW 06:59:25 10° SE daylight
20 Oct - 08:33:15 10° W 08:36:17 17° SW 08:39:18 10° S daylight
20 Oct - 22:46:04 10° SSE 22:48:15 13° SE 22:50:26 10° ESE night (unlit)
21 Oct - 00:25:03 10° SW 00:29:47 71° SE 00:34:34 10° ENE night (unlit)
21 Oct - 02:07:49 10° W 02:12:17 37° NNW 02:16:46 10° NE visible
21 Oct - 03:51:14 10° WNW 03:55:24 28° N 03:59:35 10° ENE visible
21 Oct - 05:33:41 10° NW 05:38:23 51° NNE 05:43:05 10° E daylight
21 Oct - 07:16:03 10° WNW 07:20:34 40° SW 07:25:02 10° SSE daylight
21 Oct - 23:09:47 10° SSW 23:13:54 30° SE 23:18:04 10° ENE night (unlit)
22 Oct - 00:51:11 10° WSW 00:55:53 62° NNW 01:00:40 10° NE night (unlit)
22 Oct - 02:34:33 10° WNW 02:38:46 29° N 02:42:59 10° NE visible
22 Oct - 04:17:33 10° NW 04:21:56 34° NNE 04:26:18 10° ENE visible
22 Oct - 05:59:44 10° WNW 06:04:35 90° E 06:09:23 10° ESE daylight
22 Oct - 07:43:00 10° W 07:46:18 18° SW 07:49:34 10° S daylight
22 Oct - 21:56:36 10° SSE 21:58:17 12° SE 21:59:58 10° ESE night (unlit)
22 Oct - 23:35:04 10° SW 23:39:45 65° SE 23:44:31 10° ENE night (unlit)
23 Oct - 01:17:44 10° W 01:22:13 39° NNW 01:26:43 10° NE visible
23 Oct - 03:01:10 10° WNW 03:05:19 28° N 03:09:30 10° ENE visible
23 Oct - 04:43:39 10° NW 04:48:19 48° NNE 04:53:00 10° E visible
23 Oct - 06:25:59 10° WNW 06:30:33 44° SW 06:35:06 10° SSE daylight
23 Oct - 22:19:55 10° SSW 22:23:54 28° SE 22:27:57 10° ENE night (unlit)
24 Oct - 00:01:07 10° WSW 00:05:51 66° NNW 00:10:37 10° NE night (unlit)
24 Oct - 01:44:27 10° WNW 01:48:41 30° N 01:52:56 10° NE visible
24 Oct - 03:27:30 10° NW 03:31:51 33° NNE 03:36:12 10° ENE visible
24 Oct - 05:09:42 10° WNW 05:14:32 85° NNE 05:19:21 10° ESE visible
24 Oct - 06:52:49 10° W 06:56:18 20° SW 06:59:47 10° S daylight
24 Oct - 21:07:26 10° SE 21:08:18 10° SE 21:09:11 10° ESE night (unlit)
24 Oct - 22:45:06 10° SW 22:49:44 60° SE 22:54:27 10° ENE night (unlit)
